Tracking 24122 objects as of 9-Dec-2021
HD Live streaming from Space Station
objects crossing your sky now

OPS 4682 DEB

Track OPS 4682 DEB now!
10-day predictions


NORAD ID: 38449
Int'l Code: 1965-027FE
Perigee: 1,266.8 km
Apogee: 1,314.6 km
Inclination: 90.3 °
Period: 111.2 minutes
Semi major axis: 7661 km
RCS: 0.0094 m2 (small)
Launch date: April 3, 1965
Source: United States (US)
Launch site: AIR FORCE WESTERN TEST RANGE (AFWTR)

Note: This is SATELLITE DEBRIS
aabbcc
Your satellite tracking list
Your tracking list is empty




NASA's NSSDC Master Catalog

Two Line Element Set (TLE):
1 38449U 65027FE  21340.75270958  .00000225  00000-0  77953-3 0  9994
2 38449  90.2676 333.1629 0031166 180.6497 179.4587 12.94540056373650
Source of the keplerian elements: AFSPC